cubair logo

Welcome To CubAir Flight!

Cub Air Flight was founded in 2006, by Steve and Sharon Krog. Cub Air Flight school uses vintage Piper J3 Cub aircraft to instruct in, following a philosophy that “old school is still cool.” Cub Air Flight believes that these fine classic airplanes make better pilots by requiring more attention and flying skill than newer airplanes. We at Cub Air Flight hold that flying a vintage airplane is as much an art as it is a science.

The Piper J3 Cub is revered among aviators as a truly classic and iconic airplane. It has served as a trainer to more pilots than almost any airplane, earning a reputation as easy to fly but yet challenging enough to force students to continually better themselves. Cub Air uses two J3 Cubs, restored and maintained with the same attention to detail as a lovingly restored classic car. Cub Air also uses a Piper Cherokee for training requiring an aircraft with more advanced instruments.

Find Us Here!

Hartford Municipal

Airport (KHXF)
4200 Highway U
Hartford, WI 53027

Our Staff

Steve Krog
Jamie Weber

West Bend Weather

[Source: ADDS]
METAR
KETB 160635Z AUTO 00000KT 10SM SCT046 22/22 A2994 RMK AO2 =
TAF

Waukesha Weather

[Source: ADDS]
METAR
KUES 160635Z AUTO 20003KT 10SM CLR 22/20 A2995 RMK AO2 =
TAF
KUES 160520Z 1606/1706 21005KT P6SM SCT070 BKN250 FM161000 30004KT P6SM VCTS SCT035CB BKN100 FM161400 33007KT P6SM BKN035 BKN100 FM161800 36011KT P6SM BKN045 FM162000 36011KT P6SM SCT200 FM170100 33004KT P6SM SKC =

Juneau Weather

[Source: ADDS]
METAR
KUNU 160635Z AUTO 00000KT 10SM SCT085 23/22 A2995 RMK AO2 T02280220 =
TAF

Fond Du Lac Weather

[Source: ADDS]
METAR
KFLD 160553Z AUTO 23005KT 10SM FEW100 24/22 A2992 RMK AO2 SLP127 T02440222 10289 20244 403110206 58002 =
TAF